Sidney, NE

9:18 PM MDT on August 25, 2016 (GMT -0600)
Sidney Municipal

Weather History for KSNY - November, 2013

Change the Weather History Date:

Friday, November 1, 2013

  Actual Average Record
Temperature  
Mean Temperature 39 °F 44 °F  
Max Temperature 53 °F 59 °F 77 °F (1965)
Min Temperature 25 °F 30 °F -2 °F (2002)
Degree Days  
Heating Degree Days 26 21  
Month to date heating degree days 26 21  
Since 1 July heating degree days 687 624  
Cooling Degree Days 0 0  
Month to date cooling degree days 0 0  
Year to date cooling degree days 918 830  
Moisture  
Dew Point 26 °F    
Average Humidity 58    
Maximum Humidity 85    
Minimum Humidity 31    
Precipitation  
Precipitation 0.00 in 0.02 in 0.60 in (1972)
Month to date precipitation 0.00 0.02  
Year to date precipitation 16.47 17.45  
Sea Level Pressure  
Sea Level Pressure 30.07 in    
Wind  
Wind Speed 18 mph (NW)    
Max Wind Speed 37 mph    
Max Gust Speed 46 mph    
Visibility 10 miles    
Events Rain    
T = Trace of Precipitation, MM = Missing Value Source: NWS Daily Summary

Daily Weather History Graph

Daily Weather History Graph

Search for Another Location

Airport or City:

Trip Planner

Search our weather history database for the weather conditions in past years. The results will help you decide how hot, cold, wet, or windy it might be!

Date:

Astronomy

Nov. 01, 2013 Rise Set
Actual Time 7:23 AM MDT 5:47 PM MDT
Civil Twilight 6:54 AM MDT 6:15 PM MDT
Nautical Twilight 6:22 AM MDT 6:48 PM MDT
Astronomical Twilight 5:50 AM MDT 7:20 PM MDT
Moon 5:17 AM MDT (11/1) 4:42 PM MDT (11/1)
Length of Visible Light 11h 21m
Length of Day
10h 23m
Waning Crescent, 4% of the Moon is Illuminated
Nov 1
Waning Crescent
Nov 3
New
Nov 9
First Quarter
Nov 17
Full
Nov 25
Last Quarter

Hourly Weather History & Observations

Time (MDT) Temp. Windchill Dew Point Humidity Pressure Visibility Wind Dir Wind Speed Gust Speed Precip Events Conditions
12:53 AM 41.0 °F 32.8 °F 37.0 °F 86% 29.83 in 10.0 mi NW 16.1 mph 26.5 mph 0.01 in Rain Light Rain
1:53 AM 39.0 °F 29.3 °F 34.0 °F 82% 29.84 in 10.0 mi NW 19.6 mph - 0.00 in   Clear
2:53 AM 37.9 °F 28.9 °F 33.1 °F 83% 29.86 in 10.0 mi WNW 16.1 mph - N/A   Clear
3:53 AM 37.0 °F 28.1 °F 32.0 °F 82% 29.90 in 10.0 mi NW 15.0 mph - N/A   Clear
4:53 AM 37.9 °F 28.9 °F 30.9 °F 76% 29.92 in 10.0 mi NW 16.1 mph - N/A   Clear
5:53 AM 35.1 °F 26.9 °F 30.0 °F 82% 29.97 in 10.0 mi NW 11.5 mph - N/A   Clear
6:53 AM 35.1 °F 25.2 °F 30.0 °F 82% 29.99 in 10.0 mi NW 16.1 mph - N/A   Clear
7:53 AM 36.0 °F 26.0 °F 30.0 °F 79% 30.03 in 10.0 mi NW 17.3 mph - N/A   Clear
8:53 AM 39.9 °F 30.5 °F 32.0 °F 73% 30.05 in 10.0 mi NW 19.6 mph - N/A   Clear
9:53 AM 45.0 °F 35.8 °F 30.9 °F 58% 30.07 in 10.0 mi NW 26.5 mph 35.7 mph N/A   Clear
10:53 AM 46.9 °F - 28.0 °F 48% 30.08 in 10.0 mi NNW 27.6 mph 39.1 mph N/A   Clear
11:53 AM 48.9 °F - 27.0 °F 43% 30.09 in 10.0 mi NNW 32.2 mph 44.9 mph N/A   Scattered Clouds
12:53 PM 50.0 °F - 26.1 °F 39% 30.08 in 10.0 mi NNW 31.1 mph 40.3 mph N/A   Partly Cloudy
1:53 PM 52.0 °F - 26.1 °F 37% 30.07 in 10.0 mi NW 26.5 mph 40.3 mph N/A   Mostly Cloudy
2:53 PM 48.9 °F - 21.0 °F 33% 30.09 in 10.0 mi NNW 31.1 mph 41.4 mph N/A   Partly Cloudy
3:53 PM 48.9 °F - 19.9 °F 32% 30.11 in 10.0 mi NW 26.5 mph 40.3 mph N/A   Scattered Clouds
4:53 PM 48.9 °F - 19.9 °F 32% 30.12 in 10.0 mi NNW 23.0 mph 28.8 mph N/A   Partly Cloudy
5:53 PM 45.0 °F 38.2 °F 19.9 °F 37% 30.16 in 10.0 mi North 15.0 mph - N/A   Clear
6:53 PM 37.0 °F 31.6 °F 21.0 °F 52% 30.21 in 10.0 mi NNW 6.9 mph - N/A   Clear
7:53 PM 33.1 °F 27.7 °F 21.0 °F 61% 30.23 in 10.0 mi NW 5.8 mph - N/A   Clear
8:53 PM 34.0 °F 28.0 °F 21.0 °F 59% 30.22 in 10.0 mi NW 6.9 mph - N/A   Clear
9:53 PM 30.0 °F 21.1 °F 21.0 °F 69% 30.23 in 10.0 mi West 10.4 mph - N/A   Clear
10:53 PM 30.0 °F 21.1 °F 21.9 °F 72% 30.24 in 10.0 mi West 10.4 mph - N/A   Clear
11:53 PM 27.0 °F 17.3 °F 21.0 °F 78% 30.25 in 10.0 mi WNW 10.4 mph - N/A   Partly Cloudy